Location: Middle Street
(51.7167°N, 0.0333°E)
Time: 00:44:02
(UTC+00:00)

ATLAS 5 CENTAUR R/B - Pass Details

Date: 20 January 2021
Orbit: 511 x 1147 km, 63.3° (Epoch: 16 February)

Event Time Altitude Azimuth Distance (km) Brightness Sun altitude
Rises 20:25:16 0° 284° (WNW) 2,831 6.0 -36.1°
Reaches altitude 10° 20:27:48 10° 301° (WNW) 2,014 4.9 -36.5°
Enters shadow 20:29:03 16° 314° (NW) 1,708 4.3 -36.7°
